Index of /20260503/WXO-DD/model_gdps/15km/12/033
Name Last modified Size Description
Parent Directory -
20260503T12Z_MSC_GDPS_AbsoluteVorticity_IsbL-0200_LatLon0.15_PT033H.grib2 2026-05-03 15:57 1.5M
20260503T12Z_MSC_GDPS_AbsoluteVorticity_IsbL-0250_LatLon0.15_PT033H.grib2 2026-05-03 15:57 1.6M
20260503T12Z_MSC_GDPS_AbsoluteVorticity_IsbL-0500_LatLon0.15_PT033H.grib2 2026-05-03 15:57 1.5M
20260503T12Z_MSC_GDPS_AbsoluteVorticity_IsbL-0700_LatLon0.15_PT033H.grib2 2026-05-03 15:57 1.6M
20260503T12Z_MSC_GDPS_AbsoluteVorticity_IsbL-0850_LatLon0.15_PT033H.grib2 2026-05-03 15:57 1.6M
20260503T12Z_MSC_GDPS_AirTemp_AGL-120m_LatLon0.15_PT033H.grib2 2026-05-03 15:57 905K
20260503T12Z_MSC_GDPS_AirTemp_AGL-2m_LatLon0.15_PT033H.grib2 2026-05-03 15:57 1.0M
20260503T12Z_MSC_GDPS_AirTemp_AGL-40m_LatLon0.15_PT033H.grib2 2026-05-03 15:57 812K
20260503T12Z_MSC_GDPS_AirTemp_AGL-80m_LatLon0.15_PT033H.grib2 2026-05-03 15:57 799K
20260503T12Z_MSC_GDPS_AirTemp_IsbL-0001_LatLon0.15_PT033H.grib2 2026-05-03 15:57 659K
20260503T12Z_MSC_GDPS_AirTemp_IsbL-0005_LatLon0.15_PT033H.grib2 2026-05-03 15:57 692K
20260503T12Z_MSC_GDPS_AirTemp_IsbL-0010_LatLon0.15_PT033H.grib2 2026-05-03 15:57 702K
20260503T12Z_MSC_GDPS_AirTemp_IsbL-0020_LatLon0.15_PT033H.grib2 2026-05-03 15:57 794K
20260503T12Z_MSC_GDPS_AirTemp_IsbL-0030_LatLon0.15_PT033H.grib2 2026-05-03 15:57 844K
20260503T12Z_MSC_GDPS_AirTemp_IsbL-0050_LatLon0.15_PT033H.grib2 2026-05-03 15:57 817K
20260503T12Z_MSC_GDPS_AirTemp_IsbL-0100_LatLon0.15_PT033H.grib2 2026-05-03 15:57 971K
20260503T12Z_MSC_GDPS_AirTemp_IsbL-0150_LatLon0.15_PT033H.grib2 2026-05-03 15:57 1.0M
20260503T12Z_MSC_GDPS_AirTemp_IsbL-0175_LatLon0.15_PT033H.grib2 2026-05-03 15:57 966K
20260503T12Z_MSC_GDPS_AirTemp_IsbL-0200_LatLon0.15_PT033H.grib2 2026-05-03 15:57 1.0M
20260503T12Z_MSC_GDPS_AirTemp_IsbL-0225_LatLon0.15_PT033H.grib2 2026-05-03 15:57 1.0M
20260503T12Z_MSC_GDPS_AirTemp_IsbL-0250_LatLon0.15_PT033H.grib2 2026-05-03 15:57 1.0M
20260503T12Z_MSC_GDPS_AirTemp_IsbL-0275_LatLon0.15_PT033H.grib2 2026-05-03 15:57 1.0M
20260503T12Z_MSC_GDPS_AirTemp_IsbL-0300_LatLon0.15_PT033H.grib2 2026-05-03 15:57 1.0M
20260503T12Z_MSC_GDPS_AirTemp_IsbL-0350_LatLon0.15_PT033H.grib2 2026-05-03 15:57 931K
20260503T12Z_MSC_GDPS_AirTemp_IsbL-0400_LatLon0.15_PT033H.grib2 2026-05-03 15:57 944K
20260503T12Z_MSC_GDPS_AirTemp_IsbL-0450_LatLon0.15_PT033H.grib2 2026-05-03 15:57 966K
20260503T12Z_MSC_GDPS_AirTemp_IsbL-0500_LatLon0.15_PT033H.grib2 2026-05-03 15:57 1.0M
20260503T12Z_MSC_GDPS_AirTemp_IsbL-0550_LatLon0.15_PT033H.grib2 2026-05-03 15:57 804K
20260503T12Z_MSC_GDPS_AirTemp_IsbL-0600_LatLon0.15_PT033H.grib2 2026-05-03 15:57 892K
20260503T12Z_MSC_GDPS_AirTemp_IsbL-0650_LatLon0.15_PT033H.grib2 2026-05-03 15:57 917K
20260503T12Z_MSC_GDPS_AirTemp_IsbL-0700_LatLon0.15_PT033H.grib2 2026-05-03 15:57 954K
20260503T12Z_MSC_GDPS_AirTemp_IsbL-0750_LatLon0.15_PT033H.grib2 2026-05-03 15:57 1.0M
20260503T12Z_MSC_GDPS_AirTemp_IsbL-0800_LatLon0.15_PT033H.grib2 2026-05-03 15:57 1.1M
20260503T12Z_MSC_GDPS_AirTemp_IsbL-0850_LatLon0.15_PT033H.grib2 2026-05-03 15:57 1.1M
20260503T12Z_MSC_GDPS_AirTemp_IsbL-0875_LatLon0.15_PT033H.grib2 2026-05-03 15:57 1.1M
20260503T12Z_MSC_GDPS_AirTemp_IsbL-0900_LatLon0.15_PT033H.grib2 2026-05-03 15:57 1.1M
20260503T12Z_MSC_GDPS_AirTemp_IsbL-0925_LatLon0.15_PT033H.grib2 2026-05-03 15:57 1.1M
20260503T12Z_MSC_GDPS_AirTemp_IsbL-0950_LatLon0.15_PT033H.grib2 2026-05-03 15:57 1.1M
20260503T12Z_MSC_GDPS_AirTemp_IsbL-0970_LatLon0.15_PT033H.grib2 2026-05-03 15:57 1.1M
20260503T12Z_MSC_GDPS_AirTemp_IsbL-0985_LatLon0.15_PT033H.grib2 2026-05-03 15:57 1.1M
20260503T12Z_MSC_GDPS_AirTemp_IsbL-1000_LatLon0.15_PT033H.grib2 2026-05-03 15:57 1.1M
20260503T12Z_MSC_GDPS_AirTemp_IsbL-1015_LatLon0.15_PT033H.grib2 2026-05-03 15:57 1.1M
20260503T12Z_MSC_GDPS_Albedo_Sfc_LatLon0.15_PT033H.grib2 2026-05-03 15:57 243K
20260503T12Z_MSC_GDPS_CAPE_Sfc_LatLon0.15_PT033H.grib2 2026-05-03 15:57 3.9M
20260503T12Z_MSC_GDPS_CIN_Sfc_LatLon0.15_PT033H.grib2 2026-05-03 15:57 2.8M
20260503T12Z_MSC_GDPS_CloudWater_EAtm_LatLon0.15_PT033H.grib2 2026-05-03 15:57 529K
20260503T12Z_MSC_GDPS_ConvectivePrecip-Accum_Sfc_LatLon0.15_PT033H.grib2 2026-05-03 15:57 2.6M
20260503T12Z_MSC_GDPS_DewPointDepression_AGL-2m_LatLon0.15_PT033H.grib2 2026-05-03 15:57 766K
20260503T12Z_MSC_GDPS_DewPointDepression_IsbL-0010_LatLon0.15_PT033H.grib2 2026-05-03 15:57 78K
20260503T12Z_MSC_GDPS_DewPointDepression_IsbL-0020_LatLon0.15_PT033H.grib2 2026-05-03 15:57 78K
20260503T12Z_MSC_GDPS_DewPointDepression_IsbL-0030_LatLon0.15_PT033H.grib2 2026-05-03 15:57 88K
20260503T12Z_MSC_GDPS_DewPointDepression_IsbL-0050_LatLon0.15_PT033H.grib2 2026-05-03 15:57 387K
20260503T12Z_MSC_GDPS_DewPointDepression_IsbL-0100_LatLon0.15_PT033H.grib2 2026-05-03 15:57 412K
20260503T12Z_MSC_GDPS_DewPointDepression_IsbL-0150_LatLon0.15_PT033H.grib2 2026-05-03 15:57 475K
20260503T12Z_MSC_GDPS_DewPointDepression_IsbL-0175_LatLon0.15_PT033H.grib2 2026-05-03 15:57 580K
20260503T12Z_MSC_GDPS_DewPointDepression_IsbL-0200_LatLon0.15_PT033H.grib2 2026-05-03 15:57 683K
20260503T12Z_MSC_GDPS_DewPointDepression_IsbL-0225_LatLon0.15_PT033H.grib2 2026-05-03 15:57 785K
20260503T12Z_MSC_GDPS_DewPointDepression_IsbL-0250_LatLon0.15_PT033H.grib2 2026-05-03 15:57 871K
20260503T12Z_MSC_GDPS_DewPointDepression_IsbL-0275_LatLon0.15_PT033H.grib2 2026-05-03 15:57 891K
20260503T12Z_MSC_GDPS_DewPointDepression_IsbL-0300_LatLon0.15_PT033H.grib2 2026-05-03 15:57 932K
20260503T12Z_MSC_GDPS_DewPointDepression_IsbL-0350_LatLon0.15_PT033H.grib2 2026-05-03 15:57 962K
20260503T12Z_MSC_GDPS_DewPointDepression_IsbL-0400_LatLon0.15_PT033H.grib2 2026-05-03 15:57 1.0M
20260503T12Z_MSC_GDPS_DewPointDepression_IsbL-0450_LatLon0.15_PT033H.grib2 2026-05-03 15:57 1.0M
20260503T12Z_MSC_GDPS_DewPointDepression_IsbL-0500_LatLon0.15_PT033H.grib2 2026-05-03 15:57 1.0M
20260503T12Z_MSC_GDPS_DewPointDepression_IsbL-0550_LatLon0.15_PT033H.grib2 2026-05-03 15:57 1.0M
20260503T12Z_MSC_GDPS_DewPointDepression_IsbL-0600_LatLon0.15_PT033H.grib2 2026-05-03 15:57 1.0M
20260503T12Z_MSC_GDPS_DewPointDepression_IsbL-0650_LatLon0.15_PT033H.grib2 2026-05-03 15:57 1.1M
20260503T12Z_MSC_GDPS_DewPointDepression_IsbL-0700_LatLon0.15_PT033H.grib2 2026-05-03 15:57 1.1M
20260503T12Z_MSC_GDPS_DewPointDepression_IsbL-0750_LatLon0.15_PT033H.grib2 2026-05-03 15:57 1.1M
20260503T12Z_MSC_GDPS_DewPointDepression_IsbL-0800_LatLon0.15_PT033H.grib2 2026-05-03 15:57 1.1M
20260503T12Z_MSC_GDPS_DewPointDepression_IsbL-0850_LatLon0.15_PT033H.grib2 2026-05-03 15:57 1.1M
20260503T12Z_MSC_GDPS_DewPointDepression_IsbL-0875_LatLon0.15_PT033H.grib2 2026-05-03 15:57 1.1M
20260503T12Z_MSC_GDPS_DewPointDepression_IsbL-0900_LatLon0.15_PT033H.grib2 2026-05-03 15:57 1.0M
20260503T12Z_MSC_GDPS_DewPointDepression_IsbL-0925_LatLon0.15_PT033H.grib2 2026-05-03 15:57 1.0M
20260503T12Z_MSC_GDPS_DewPointDepression_IsbL-0950_LatLon0.15_PT033H.grib2 2026-05-03 15:57 1.0M
20260503T12Z_MSC_GDPS_DewPointDepression_IsbL-0970_LatLon0.15_PT033H.grib2 2026-05-03 15:57 1.0M
20260503T12Z_MSC_GDPS_DewPointDepression_IsbL-0985_LatLon0.15_PT033H.grib2 2026-05-03 15:57 1.0M
20260503T12Z_MSC_GDPS_DewPointDepression_IsbL-1000_LatLon0.15_PT033H.grib2 2026-05-03 15:57 1.0M
20260503T12Z_MSC_GDPS_DewPointDepression_IsbL-1015_LatLon0.15_PT033H.grib2 2026-05-03 15:57 919K
20260503T12Z_MSC_GDPS_DewPoint_AGL-2m_LatLon0.15_PT033H.grib2 2026-05-03 15:57 604K
20260503T12Z_MSC_GDPS_DownwardLongwaveRadiationFlux-Accum_Sfc_LatLon0.15_PT033H.grib2 2026-05-03 15:57 776K
20260503T12Z_MSC_GDPS_DownwardShortwaveRadiationFlux-Accum_NTAtm_LatLon0.15_PT033H.grib2 2026-05-03 15:57 278K
20260503T12Z_MSC_GDPS_DownwardShortwaveRadiationFlux-Accum_Sfc_LatLon0.15_PT033H.grib2 2026-05-03 15:57 919K
20260503T12Z_MSC_GDPS_FreezingRain-Accum1h_Sfc_LatLon0.15_PT033H.grib2 2026-05-03 15:57 36K
20260503T12Z_MSC_GDPS_FreezingRain-Accum3h_Sfc_LatLon0.15_PT033H.grib2 2026-05-03 15:57 46K
20260503T12Z_MSC_GDPS_FreezingRain-Accum_Sfc_LatLon0.15_PT033H.grib2 2026-05-03 15:57 159K
20260503T12Z_MSC_GDPS_GeopotentialHeight_IsbL-0001_LatLon0.15_PT033H.grib2 2026-05-03 15:57 428K
20260503T12Z_MSC_GDPS_GeopotentialHeight_IsbL-0005_LatLon0.15_PT033H.grib2 2026-05-03 15:57 500K
20260503T12Z_MSC_GDPS_GeopotentialHeight_IsbL-0010_LatLon0.15_PT033H.grib2 2026-05-03 15:57 484K
20260503T12Z_MSC_GDPS_GeopotentialHeight_IsbL-0020_LatLon0.15_PT033H.grib2 2026-05-03 15:57 415K
20260503T12Z_MSC_GDPS_GeopotentialHeight_IsbL-0030_LatLon0.15_PT033H.grib2 2026-05-03 15:57 575K
20260503T12Z_MSC_GDPS_GeopotentialHeight_IsbL-0050_LatLon0.15_PT033H.grib2 2026-05-03 15:57 575K
20260503T12Z_MSC_GDPS_GeopotentialHeight_IsbL-0100_LatLon0.15_PT033H.grib2 2026-05-03 15:57 612K
20260503T12Z_MSC_GDPS_GeopotentialHeight_IsbL-0150_LatLon0.15_PT033H.grib2 2026-05-03 15:57 628K
20260503T12Z_MSC_GDPS_GeopotentialHeight_IsbL-0175_LatLon0.15_PT033H.grib2 2026-05-03 15:57 633K
20260503T12Z_MSC_GDPS_GeopotentialHeight_IsbL-0200_LatLon0.15_PT033H.grib2 2026-05-03 15:57 638K
20260503T12Z_MSC_GDPS_GeopotentialHeight_IsbL-0225_LatLon0.15_PT033H.grib2 2026-05-03 15:57 637K
20260503T12Z_MSC_GDPS_GeopotentialHeight_IsbL-0250_LatLon0.15_PT033H.grib2 2026-05-03 15:57 647K
20260503T12Z_MSC_GDPS_GeopotentialHeight_IsbL-0275_LatLon0.15_PT033H.grib2 2026-05-03 15:57 645K
20260503T12Z_MSC_GDPS_GeopotentialHeight_IsbL-0300_LatLon0.15_PT033H.grib2 2026-05-03 15:57 637K
20260503T12Z_MSC_GDPS_GeopotentialHeight_IsbL-0350_LatLon0.15_PT033H.grib2 2026-05-03 15:57 632K
20260503T12Z_MSC_GDPS_GeopotentialHeight_IsbL-0400_LatLon0.15_PT033H.grib2 2026-05-03 15:57 624K
20260503T12Z_MSC_GDPS_GeopotentialHeight_IsbL-0450_LatLon0.15_PT033H.grib2 2026-05-03 15:57 613K
20260503T12Z_MSC_GDPS_GeopotentialHeight_IsbL-0500_LatLon0.15_PT033H.grib2 2026-05-03 15:57 605K
20260503T12Z_MSC_GDPS_GeopotentialHeight_IsbL-0550_LatLon0.15_PT033H.grib2 2026-05-03 15:57 529K
20260503T12Z_MSC_GDPS_GeopotentialHeight_IsbL-0600_LatLon0.15_PT033H.grib2 2026-05-03 15:57 526K
20260503T12Z_MSC_GDPS_GeopotentialHeight_IsbL-0650_LatLon0.15_PT033H.grib2 2026-05-03 15:57 691K
20260503T12Z_MSC_GDPS_GeopotentialHeight_IsbL-0700_LatLon0.15_PT033H.grib2 2026-05-03 15:57 686K
20260503T12Z_MSC_GDPS_GeopotentialHeight_IsbL-0750_LatLon0.15_PT033H.grib2 2026-05-03 15:57 690K
20260503T12Z_MSC_GDPS_GeopotentialHeight_IsbL-0800_LatLon0.15_PT033H.grib2 2026-05-03 15:57 703K
20260503T12Z_MSC_GDPS_GeopotentialHeight_IsbL-0850_LatLon0.15_PT033H.grib2 2026-05-03 15:57 707K
20260503T12Z_MSC_GDPS_GeopotentialHeight_IsbL-0875_LatLon0.15_PT033H.grib2 2026-05-03 15:57 715K
20260503T12Z_MSC_GDPS_GeopotentialHeight_IsbL-0900_LatLon0.15_PT033H.grib2 2026-05-03 15:57 723K
20260503T12Z_MSC_GDPS_GeopotentialHeight_IsbL-0925_LatLon0.15_PT033H.grib2 2026-05-03 15:57 730K
20260503T12Z_MSC_GDPS_GeopotentialHeight_IsbL-0950_LatLon0.15_PT033H.grib2 2026-05-03 15:57 738K
20260503T12Z_MSC_GDPS_GeopotentialHeight_IsbL-0970_LatLon0.15_PT033H.grib2 2026-05-03 15:57 748K
20260503T12Z_MSC_GDPS_GeopotentialHeight_IsbL-0985_LatLon0.15_PT033H.grib2 2026-05-03 15:57 763K
20260503T12Z_MSC_GDPS_GeopotentialHeight_IsbL-1000_LatLon0.15_PT033H.grib2 2026-05-03 15:57 784K
20260503T12Z_MSC_GDPS_GeopotentialHeight_IsbL-1015_LatLon0.15_PT033H.grib2 2026-05-03 15:57 805K
20260503T12Z_MSC_GDPS_Humidex_Sfc_LatLon0.15_PT033H.grib2 2026-05-03 15:57 5.3M
20260503T12Z_MSC_GDPS_IcePellets-Accum1h_Sfc_LatLon0.15_PT033H.grib2 2026-05-03 15:57 8.1K
20260503T12Z_MSC_GDPS_IcePellets-Accum3h_Sfc_LatLon0.15_PT033H.grib2 2026-05-03 15:57 14K
20260503T12Z_MSC_GDPS_IcePellets-Accum_Sfc_LatLon0.15_PT033H.grib2 2026-05-03 15:57 44K
20260503T12Z_MSC_GDPS_KIndex_Sfc_LatLon0.15_PT033H.grib2 2026-05-03 15:57 6.5M
20260503T12Z_MSC_GDPS_LatentHeatNetFlux_Sfc_LatLon0.15_PT033H.grib2 2026-05-03 15:57 671K
20260503T12Z_MSC_GDPS_LiftedIndex-MU-VT_IsbL-0500_LatLon0.15_PT033H.grib2 2026-05-03 15:57 5.4M
20260503T12Z_MSC_GDPS_NetLongwaveRadiationFlux-Accum_Sfc_LatLon0.15_PT033H.grib2 2026-05-03 15:57 1.0M
20260503T12Z_MSC_GDPS_NetShortwaveRadiationFlux-Accum_Sfc_LatLon0.15_PT033H.grib2 2026-05-03 15:57 894K
20260503T12Z_MSC_GDPS_O3MixingRatio_Sfc_LatLon0.15_PT033H.grib2 2026-05-03 16:46 2.0M
20260503T12Z_MSC_GDPS_O3_EAtm_LatLon0.15_PT033H.grib2 2026-05-03 16:46 2.5M
20260503T12Z_MSC_GDPS_PlanetaryBoundaryLayerHeight_Sfc_LatLon0.15_PT033H.grib2 2026-05-03 15:57 2.4M
20260503T12Z_MSC_GDPS_Precip-Accum1h_Sfc_LatLon0.15_PT033H.grib2 2026-05-03 15:57 3.2M
20260503T12Z_MSC_GDPS_Precip-Accum3h_Sfc_LatLon0.15_PT033H.grib2 2026-05-03 15:57 3.5M
20260503T12Z_MSC_GDPS_Precip-Accum_Sfc_LatLon0.15_PT033H.grib2 2026-05-03 15:57 4.6M
20260503T12Z_MSC_GDPS_PrecipRate_Sfc_LatLon0.15_PT033H.grib2 2026-05-03 15:57 2.9M
20260503T12Z_MSC_GDPS_PrecipType-Instant_Sfc_LatLon0.15_PT033H.grib2 2026-05-03 15:57 1.5M
20260503T12Z_MSC_GDPS_Pressure_MSL_LatLon0.15_PT033H.grib2 2026-05-03 15:57 821K
20260503T12Z_MSC_GDPS_Pressure_PVU-1.5_LatLon0.15_PT033H.grib2 2026-05-03 15:57 5.8M
20260503T12Z_MSC_GDPS_Pressure_PVU-1_LatLon0.15_PT033H.grib2 2026-05-03 15:57 6.0M
20260503T12Z_MSC_GDPS_Pressure_PVU-2_LatLon0.15_PT033H.grib2 2026-05-03 15:57 5.6M
20260503T12Z_MSC_GDPS_Pressure_Sfc_LatLon0.15_PT033H.grib2 2026-05-03 15:57 1.1M
20260503T12Z_MSC_GDPS_RadiativeTemp_Sfc_LatLon0.15_PT033H.grib2 2026-05-03 15:57 654K
20260503T12Z_MSC_GDPS_Rain-Accum1h_Sfc_LatLon0.15_PT033H.grib2 2026-05-03 15:57 1.6M
20260503T12Z_MSC_GDPS_Rain-Accum3h_Sfc_LatLon0.15_PT033H.grib2 2026-05-03 15:57 1.7M
20260503T12Z_MSC_GDPS_Rain-Accum_Sfc_LatLon0.15_PT033H.grib2 2026-05-03 15:57 3.4M
20260503T12Z_MSC_GDPS_RelativeHumidity_AGL-2m_LatLon0.15_PT033H.grib2 2026-05-03 15:57 1.1M
20260503T12Z_MSC_GDPS_RelativeHumidity_IsbL-0010_LatLon0.15_PT033H.grib2 2026-05-03 15:57 141K
20260503T12Z_MSC_GDPS_RelativeHumidity_IsbL-0020_LatLon0.15_PT033H.grib2 2026-05-03 15:57 177K
20260503T12Z_MSC_GDPS_RelativeHumidity_IsbL-0030_LatLon0.15_PT033H.grib2 2026-05-03 15:57 276K
20260503T12Z_MSC_GDPS_RelativeHumidity_IsbL-0050_LatLon0.15_PT033H.grib2 2026-05-03 15:57 527K
20260503T12Z_MSC_GDPS_RelativeHumidity_IsbL-0100_LatLon0.15_PT033H.grib2 2026-05-03 15:57 518K
20260503T12Z_MSC_GDPS_RelativeHumidity_IsbL-0150_LatLon0.15_PT033H.grib2 2026-05-03 15:57 666K
20260503T12Z_MSC_GDPS_RelativeHumidity_IsbL-0175_LatLon0.15_PT033H.grib2 2026-05-03 15:57 790K
20260503T12Z_MSC_GDPS_RelativeHumidity_IsbL-0200_LatLon0.15_PT033H.grib2 2026-05-03 15:57 705K
20260503T12Z_MSC_GDPS_RelativeHumidity_IsbL-0225_LatLon0.15_PT033H.grib2 2026-05-03 15:57 790K
20260503T12Z_MSC_GDPS_RelativeHumidity_IsbL-0250_LatLon0.15_PT033H.grib2 2026-05-03 15:57 870K
20260503T12Z_MSC_GDPS_RelativeHumidity_IsbL-0275_LatLon0.15_PT033H.grib2 2026-05-03 15:57 892K
20260503T12Z_MSC_GDPS_RelativeHumidity_IsbL-0300_LatLon0.15_PT033H.grib2 2026-05-03 15:57 933K
20260503T12Z_MSC_GDPS_RelativeHumidity_IsbL-0350_LatLon0.15_PT033H.grib2 2026-05-03 15:57 955K
20260503T12Z_MSC_GDPS_RelativeHumidity_IsbL-0400_LatLon0.15_PT033H.grib2 2026-05-03 15:57 1.0M
20260503T12Z_MSC_GDPS_RelativeHumidity_IsbL-0450_LatLon0.15_PT033H.grib2 2026-05-03 15:57 1.0M
20260503T12Z_MSC_GDPS_RelativeHumidity_IsbL-0500_LatLon0.15_PT033H.grib2 2026-05-03 15:57 1.0M
20260503T12Z_MSC_GDPS_RelativeHumidity_IsbL-0550_LatLon0.15_PT033H.grib2 2026-05-03 15:57 1.1M
20260503T12Z_MSC_GDPS_RelativeHumidity_IsbL-0600_LatLon0.15_PT033H.grib2 2026-05-03 15:57 1.1M
20260503T12Z_MSC_GDPS_RelativeHumidity_IsbL-0650_LatLon0.15_PT033H.grib2 2026-05-03 15:57 1.1M
20260503T12Z_MSC_GDPS_RelativeHumidity_IsbL-0700_LatLon0.15_PT033H.grib2 2026-05-03 15:57 1.1M
20260503T12Z_MSC_GDPS_RelativeHumidity_IsbL-0750_LatLon0.15_PT033H.grib2 2026-05-03 15:57 1.2M
20260503T12Z_MSC_GDPS_RelativeHumidity_IsbL-0800_LatLon0.15_PT033H.grib2 2026-05-03 15:57 1.2M
20260503T12Z_MSC_GDPS_RelativeHumidity_IsbL-0850_LatLon0.15_PT033H.grib2 2026-05-03 15:57 1.3M
20260503T12Z_MSC_GDPS_RelativeHumidity_IsbL-0875_LatLon0.15_PT033H.grib2 2026-05-03 15:57 1.3M
20260503T12Z_MSC_GDPS_RelativeHumidity_IsbL-0900_LatLon0.15_PT033H.grib2 2026-05-03 15:57 1.3M
20260503T12Z_MSC_GDPS_RelativeHumidity_IsbL-0925_LatLon0.15_PT033H.grib2 2026-05-03 15:57 1.2M
20260503T12Z_MSC_GDPS_RelativeHumidity_IsbL-0950_LatLon0.15_PT033H.grib2 2026-05-03 15:57 1.2M
20260503T12Z_MSC_GDPS_RelativeHumidity_IsbL-0970_LatLon0.15_PT033H.grib2 2026-05-03 15:57 1.2M
20260503T12Z_MSC_GDPS_RelativeHumidity_IsbL-0985_LatLon0.15_PT033H.grib2 2026-05-03 15:57 1.1M
20260503T12Z_MSC_GDPS_RelativeHumidity_IsbL-1000_LatLon0.15_PT033H.grib2 2026-05-03 15:57 1.2M
20260503T12Z_MSC_GDPS_RelativeHumidity_IsbL-1015_LatLon0.15_PT033H.grib2 2026-05-03 15:57 1.0M
20260503T12Z_MSC_GDPS_RelativeVorticity_IsbL-0200_LatLon0.15_PT033H.grib2 2026-05-03 15:57 1.5M
20260503T12Z_MSC_GDPS_RelativeVorticity_IsbL-0250_LatLon0.15_PT033H.grib2 2026-05-03 15:57 1.6M
20260503T12Z_MSC_GDPS_RelativeVorticity_IsbL-0500_LatLon0.15_PT033H.grib2 2026-05-03 15:57 1.5M
20260503T12Z_MSC_GDPS_RelativeVorticity_IsbL-0700_LatLon0.15_PT033H.grib2 2026-05-03 15:57 1.3M
20260503T12Z_MSC_GDPS_RelativeVorticity_IsbL-0850_LatLon0.15_PT033H.grib2 2026-05-03 15:57 1.6M
20260503T12Z_MSC_GDPS_Runoff-Accum_Sfc_LatLon0.15_PT033H.grib2 2026-05-03 15:57 138K
20260503T12Z_MSC_GDPS_SensibleHeatNetFlux_Sfc_LatLon0.15_PT033H.grib2 2026-05-03 15:57 616K
20260503T12Z_MSC_GDPS_ShowalterIndex_IsbL-0500_LatLon0.15_PT033H.grib2 2026-05-03 15:57 6.2M
20260503T12Z_MSC_GDPS_Snow-Accum1h_Sfc_LatLon0.15_PT033H.grib2 2026-05-03 15:57 1.1M
20260503T12Z_MSC_GDPS_Snow-Accum3h_Sfc_LatLon0.15_PT033H.grib2 2026-05-03 15:57 1.1M
20260503T12Z_MSC_GDPS_Snow-Accum_Sfc_LatLon0.15_PT033H.grib2 2026-05-03 15:57 1.7M
20260503T12Z_MSC_GDPS_SnowDensity_Sfc_LatLon0.15_PT033H.grib2 2026-05-03 15:57 251K
20260503T12Z_MSC_GDPS_SnowDepth_Sfc_LatLon0.15_PT033H.grib2 2026-05-03 15:57 1.7M
20260503T12Z_MSC_GDPS_SoilTemp_DBS-0to10cm_LatLon0.15_PT033H.grib2 2026-05-03 15:57 503K
20260503T12Z_MSC_GDPS_SoilTemp_Sfc_LatLon0.15_PT033H.grib2 2026-05-03 15:57 575K
20260503T12Z_MSC_GDPS_SoilVolumetricIceContent_Sfc_LatLon0.15_PT033H.grib2 2026-05-03 15:57 193K
20260503T12Z_MSC_GDPS_SoilVolumetricWaterContent_DBS-0to10cm_LatLon0.15_PT033H.grib2 2026-05-03 15:57 589K
20260503T12Z_MSC_GDPS_SoilVolumetricWaterContent_DBS-0to1cm_LatLon0.15_PT033H.grib2 2026-05-03 15:57 649K
20260503T12Z_MSC_GDPS_SpecificHumidity_AGL-120m_LatLon0.15_PT033H.grib2 2026-05-03 15:57 1.1M
20260503T12Z_MSC_GDPS_SpecificHumidity_AGL-2m_LatLon0.15_PT033H.grib2 2026-05-03 15:57 1.2M
20260503T12Z_MSC_GDPS_SpecificHumidity_AGL-40m_LatLon0.15_PT033H.grib2 2026-05-03 15:57 1.1M
20260503T12Z_MSC_GDPS_SpecificHumidity_AGL-80m_LatLon0.15_PT033H.grib2 2026-05-03 15:57 1.1M
20260503T12Z_MSC_GDPS_SpecificHumidity_IsbL-0001_LatLon0.15_PT033H.grib2 2026-05-03 15:57 1.4M
20260503T12Z_MSC_GDPS_SpecificHumidity_IsbL-0005_LatLon0.15_PT033H.grib2 2026-05-03 15:57 1.3M
20260503T12Z_MSC_GDPS_SpecificHumidity_IsbL-0010_LatLon0.15_PT033H.grib2 2026-05-03 15:57 1.4M
20260503T12Z_MSC_GDPS_SpecificHumidity_IsbL-0020_LatLon0.15_PT033H.grib2 2026-05-03 15:57 1.4M
20260503T12Z_MSC_GDPS_SpecificHumidity_IsbL-0030_LatLon0.15_PT033H.grib2 2026-05-03 15:57 1.4M
20260503T12Z_MSC_GDPS_SpecificHumidity_IsbL-0050_LatLon0.15_PT033H.grib2 2026-05-03 15:57 1.4M
20260503T12Z_MSC_GDPS_SpecificHumidity_IsbL-0100_LatLon0.15_PT033H.grib2 2026-05-03 15:57 1.4M
20260503T12Z_MSC_GDPS_SpecificHumidity_IsbL-0150_LatLon0.15_PT033H.grib2 2026-05-03 15:57 1.3M
20260503T12Z_MSC_GDPS_SpecificHumidity_IsbL-0175_LatLon0.15_PT033H.grib2 2026-05-03 15:57 1.3M
20260503T12Z_MSC_GDPS_SpecificHumidity_IsbL-0200_LatLon0.15_PT033H.grib2 2026-05-03 15:57 1.3M
20260503T12Z_MSC_GDPS_SpecificHumidity_IsbL-0225_LatLon0.15_PT033H.grib2 2026-05-03 15:57 1.3M
20260503T12Z_MSC_GDPS_SpecificHumidity_IsbL-0250_LatLon0.15_PT033H.grib2 2026-05-03 15:57 1.4M
20260503T12Z_MSC_GDPS_SpecificHumidity_IsbL-0275_LatLon0.15_PT033H.grib2 2026-05-03 15:57 1.3M
20260503T12Z_MSC_GDPS_SpecificHumidity_IsbL-0300_LatLon0.15_PT033H.grib2 2026-05-03 15:57 1.2M
20260503T12Z_MSC_GDPS_SpecificHumidity_IsbL-0350_LatLon0.15_PT033H.grib2 2026-05-03 15:57 1.2M
20260503T12Z_MSC_GDPS_SpecificHumidity_IsbL-0400_LatLon0.15_PT033H.grib2 2026-05-03 15:57 1.5M
20260503T12Z_MSC_GDPS_SpecificHumidity_IsbL-0450_LatLon0.15_PT033H.grib2 2026-05-03 15:57 1.6M
20260503T12Z_MSC_GDPS_SpecificHumidity_IsbL-0500_LatLon0.15_PT033H.grib2 2026-05-03 15:57 1.4M
20260503T12Z_MSC_GDPS_SpecificHumidity_IsbL-0550_LatLon0.15_PT033H.grib2 2026-05-03 15:57 1.6M
20260503T12Z_MSC_GDPS_SpecificHumidity_IsbL-0600_LatLon0.15_PT033H.grib2 2026-05-03 15:57 1.7M
20260503T12Z_MSC_GDPS_SpecificHumidity_IsbL-0650_LatLon0.15_PT033H.grib2 2026-05-03 15:57 1.5M
20260503T12Z_MSC_GDPS_SpecificHumidity_IsbL-0700_LatLon0.15_PT033H.grib2 2026-05-03 15:57 1.6M
20260503T12Z_MSC_GDPS_SpecificHumidity_IsbL-0750_LatLon0.15_PT033H.grib2 2026-05-03 15:57 1.7M
20260503T12Z_MSC_GDPS_SpecificHumidity_IsbL-0800_LatLon0.15_PT033H.grib2 2026-05-03 15:57 1.8M
20260503T12Z_MSC_GDPS_SpecificHumidity_IsbL-0850_LatLon0.15_PT033H.grib2 2026-05-03 15:57 1.9M
20260503T12Z_MSC_GDPS_SpecificHumidity_IsbL-0875_LatLon0.15_PT033H.grib2 2026-05-03 15:57 1.9M
20260503T12Z_MSC_GDPS_SpecificHumidity_IsbL-0900_LatLon0.15_PT033H.grib2 2026-05-03 15:57 1.9M
20260503T12Z_MSC_GDPS_SpecificHumidity_IsbL-0925_LatLon0.15_PT033H.grib2 2026-05-03 15:57 1.6M
20260503T12Z_MSC_GDPS_SpecificHumidity_IsbL-0950_LatLon0.15_PT033H.grib2 2026-05-03 15:57 1.5M
20260503T12Z_MSC_GDPS_SpecificHumidity_IsbL-0970_LatLon0.15_PT033H.grib2 2026-05-03 15:57 1.5M
20260503T12Z_MSC_GDPS_SpecificHumidity_IsbL-0985_LatLon0.15_PT033H.grib2 2026-05-03 15:57 1.5M
20260503T12Z_MSC_GDPS_SpecificHumidity_IsbL-1000_LatLon0.15_PT033H.grib2 2026-05-03 15:57 1.5M
20260503T12Z_MSC_GDPS_SpecificHumidity_IsbL-1015_LatLon0.15_PT033H.grib2 2026-05-03 15:57 1.4M
20260503T12Z_MSC_GDPS_SpecificHumidity_Sfc_LatLon0.15_PT033H.grib2 2026-05-03 15:57 660K
20260503T12Z_MSC_GDPS_Thickness_IsbL-0850to0700_LatLon0.15_PT033H.grib2 2026-05-03 15:57 467K
20260503T12Z_MSC_GDPS_Thickness_IsbL-1000to0500_LatLon0.15_PT033H.grib2 2026-05-03 15:57 372K
20260503T12Z_MSC_GDPS_Thickness_IsbL-1000to0850_LatLon0.15_PT033H.grib2 2026-05-03 15:57 485K
20260503T12Z_MSC_GDPS_TotalCloudCover_Sfc_LatLon0.15_PT033H.grib2 2026-05-03 15:57 820K
20260503T12Z_MSC_GDPS_TotalTotalsIndex_Sfc_LatLon0.15_PT033H.grib2 2026-05-03 15:57 6.2M
20260503T12Z_MSC_GDPS_UVIndex-ClearSky_Sfc_LatLon0.15_PT033H.grib2 2026-05-03 16:46 1.0M
20260503T12Z_MSC_GDPS_UVIndex_Sfc_LatLon0.15_PT033H.grib2 2026-05-03 16:46 1.5M
20260503T12Z_MSC_GDPS_UpwardLongwaveRadiationFlux_NTAtm_LatLon0.15_PT033H.grib2 2026-05-03 15:57 833K
20260503T12Z_MSC_GDPS_VerticalVelocity_IsbL-0200_LatLon0.15_PT033H.grib2 2026-05-03 15:57 946K
20260503T12Z_MSC_GDPS_VerticalVelocity_IsbL-0250_LatLon0.15_PT033H.grib2 2026-05-03 15:57 1.1M
20260503T12Z_MSC_GDPS_VerticalVelocity_IsbL-0500_LatLon0.15_PT033H.grib2 2026-05-03 15:57 1.0M
20260503T12Z_MSC_GDPS_VerticalVelocity_IsbL-0600_LatLon0.15_PT033H.grib2 2026-05-03 15:57 1.1M
20260503T12Z_MSC_GDPS_VerticalVelocity_IsbL-0700_LatLon0.15_PT033H.grib2 2026-05-03 15:57 1.4M
20260503T12Z_MSC_GDPS_VerticalVelocity_IsbL-0850_LatLon0.15_PT033H.grib2 2026-05-03 15:57 1.6M
20260503T12Z_MSC_GDPS_WindChill_Sfc_LatLon0.15_PT033H.grib2 2026-05-03 15:57 5.3M
20260503T12Z_MSC_GDPS_WindDir_AGL-10m_LatLon0.15_PT033H.grib2 2026-05-03 15:57 1.3M
20260503T12Z_MSC_GDPS_WindDir_AGL-120m_LatLon0.15_PT033H.grib2 2026-05-03 15:57 1.3M
20260503T12Z_MSC_GDPS_WindDir_AGL-40m_LatLon0.15_PT033H.grib2 2026-05-03 15:57 1.4M
20260503T12Z_MSC_GDPS_WindDir_AGL-80m_LatLon0.15_PT033H.grib2 2026-05-03 15:57 1.4M
20260503T12Z_MSC_GDPS_WindDir_IsbL-0001_LatLon0.15_PT033H.grib2 2026-05-03 15:57 673K
20260503T12Z_MSC_GDPS_WindDir_IsbL-0005_LatLon0.15_PT033H.grib2 2026-05-03 15:57 840K
20260503T12Z_MSC_GDPS_WindDir_IsbL-0010_LatLon0.15_PT033H.grib2 2026-05-03 15:57 845K
20260503T12Z_MSC_GDPS_WindDir_IsbL-0020_LatLon0.15_PT033H.grib2 2026-05-03 15:57 945K
20260503T12Z_MSC_GDPS_WindDir_IsbL-0030_LatLon0.15_PT033H.grib2 2026-05-03 15:57 956K
20260503T12Z_MSC_GDPS_WindDir_IsbL-0050_LatLon0.15_PT033H.grib2 2026-05-03 15:57 959K
20260503T12Z_MSC_GDPS_WindDir_IsbL-0100_LatLon0.15_PT033H.grib2 2026-05-03 15:57 1.0M
20260503T12Z_MSC_GDPS_WindDir_IsbL-0150_LatLon0.15_PT033H.grib2 2026-05-03 15:57 1.0M
20260503T12Z_MSC_GDPS_WindDir_IsbL-0175_LatLon0.15_PT033H.grib2 2026-05-03 15:57 1.1M
20260503T12Z_MSC_GDPS_WindDir_IsbL-0200_LatLon0.15_PT033H.grib2 2026-05-03 15:57 1.1M
20260503T12Z_MSC_GDPS_WindDir_IsbL-0225_LatLon0.15_PT033H.grib2 2026-05-03 15:57 1.1M
20260503T12Z_MSC_GDPS_WindDir_IsbL-0250_LatLon0.15_PT033H.grib2 2026-05-03 15:57 1.1M
20260503T12Z_MSC_GDPS_WindDir_IsbL-0275_LatLon0.15_PT033H.grib2 2026-05-03 15:57 1.2M
20260503T12Z_MSC_GDPS_WindDir_IsbL-0300_LatLon0.15_PT033H.grib2 2026-05-03 15:57 1.2M
20260503T12Z_MSC_GDPS_WindDir_IsbL-0350_LatLon0.15_PT033H.grib2 2026-05-03 15:57 1.2M
20260503T12Z_MSC_GDPS_WindDir_IsbL-0400_LatLon0.15_PT033H.grib2 2026-05-03 15:57 1.3M
20260503T12Z_MSC_GDPS_WindDir_IsbL-0450_LatLon0.15_PT033H.grib2 2026-05-03 15:57 1.3M
20260503T12Z_MSC_GDPS_WindDir_IsbL-0500_LatLon0.15_PT033H.grib2 2026-05-03 15:57 1.3M
20260503T12Z_MSC_GDPS_WindDir_IsbL-0550_LatLon0.15_PT033H.grib2 2026-05-03 15:57 1.4M
20260503T12Z_MSC_GDPS_WindDir_IsbL-0600_LatLon0.15_PT033H.grib2 2026-05-03 15:57 1.4M
20260503T12Z_MSC_GDPS_WindDir_IsbL-0650_LatLon0.15_PT033H.grib2 2026-05-03 15:57 1.5M
20260503T12Z_MSC_GDPS_WindDir_IsbL-0700_LatLon0.15_PT033H.grib2 2026-05-03 15:57 1.6M
20260503T12Z_MSC_GDPS_WindDir_IsbL-0750_LatLon0.15_PT033H.grib2 2026-05-03 15:57 1.7M
20260503T12Z_MSC_GDPS_WindDir_IsbL-0800_LatLon0.15_PT033H.grib2 2026-05-03 15:57 1.8M
20260503T12Z_MSC_GDPS_WindDir_IsbL-0850_LatLon0.15_PT033H.grib2 2026-05-03 15:57 1.9M
20260503T12Z_MSC_GDPS_WindDir_IsbL-0875_LatLon0.15_PT033H.grib2 2026-05-03 15:57 1.9M
20260503T12Z_MSC_GDPS_WindDir_IsbL-0900_LatLon0.15_PT033H.grib2 2026-05-03 15:57 1.9M
20260503T12Z_MSC_GDPS_WindDir_IsbL-0925_LatLon0.15_PT033H.grib2 2026-05-03 15:57 1.9M
20260503T12Z_MSC_GDPS_WindDir_IsbL-0950_LatLon0.15_PT033H.grib2 2026-05-03 15:57 1.9M
20260503T12Z_MSC_GDPS_WindDir_IsbL-0970_LatLon0.15_PT033H.grib2 2026-05-03 15:57 2.0M
20260503T12Z_MSC_GDPS_WindDir_IsbL-0985_LatLon0.15_PT033H.grib2 2026-05-03 15:57 2.0M
20260503T12Z_MSC_GDPS_WindDir_IsbL-1000_LatLon0.15_PT033H.grib2 2026-05-03 15:57 2.1M
20260503T12Z_MSC_GDPS_WindDir_IsbL-1015_LatLon0.15_PT033H.grib2 2026-05-03 15:57 2.0M
20260503T12Z_MSC_GDPS_WindGust-Max_AGL-10m_LatLon0.15_PT033H.grib2 2026-05-03 15:57 2.2M
20260503T12Z_MSC_GDPS_WindGust-Min_AGL-10m_LatLon0.15_PT033H.grib2 2026-05-03 15:57 2.2M
20260503T12Z_MSC_GDPS_WindGust_AGL-10m_LatLon0.15_PT033H.grib2 2026-05-03 15:57 2.2M
20260503T12Z_MSC_GDPS_WindSpeed_AGL-10m_LatLon0.15_PT033H.grib2 2026-05-03 15:57 1.1M
20260503T12Z_MSC_GDPS_WindSpeed_AGL-120m_LatLon0.15_PT033H.grib2 2026-05-03 15:57 1.2M
20260503T12Z_MSC_GDPS_WindSpeed_AGL-40m_LatLon0.15_PT033H.grib2 2026-05-03 15:57 1.2M
20260503T12Z_MSC_GDPS_WindSpeed_AGL-80m_LatLon0.15_PT033H.grib2 2026-05-03 15:57 1.2M
20260503T12Z_MSC_GDPS_WindSpeed_IsbL-0001_LatLon0.15_PT033H.grib2 2026-05-03 15:57 652K
20260503T12Z_MSC_GDPS_WindSpeed_IsbL-0005_LatLon0.15_PT033H.grib2 2026-05-03 15:57 623K
20260503T12Z_MSC_GDPS_WindSpeed_IsbL-0010_LatLon0.15_PT033H.grib2 2026-05-03 15:57 636K
20260503T12Z_MSC_GDPS_WindSpeed_IsbL-0020_LatLon0.15_PT033H.grib2 2026-05-03 15:57 865K
20260503T12Z_MSC_GDPS_WindSpeed_IsbL-0030_LatLon0.15_PT033H.grib2 2026-05-03 15:57 875K
20260503T12Z_MSC_GDPS_WindSpeed_IsbL-0050_LatLon0.15_PT033H.grib2 2026-05-03 15:57 919K
20260503T12Z_MSC_GDPS_WindSpeed_IsbL-0100_LatLon0.15_PT033H.grib2 2026-05-03 15:57 1.1M
20260503T12Z_MSC_GDPS_WindSpeed_IsbL-0150_LatLon0.15_PT033H.grib2 2026-05-03 15:57 948K
20260503T12Z_MSC_GDPS_WindSpeed_IsbL-0175_LatLon0.15_PT033H.grib2 2026-05-03 15:57 1.0M
20260503T12Z_MSC_GDPS_WindSpeed_IsbL-0200_LatLon0.15_PT033H.grib2 2026-05-03 15:57 1.1M
20260503T12Z_MSC_GDPS_WindSpeed_IsbL-0225_LatLon0.15_PT033H.grib2 2026-05-03 15:57 1.1M
20260503T12Z_MSC_GDPS_WindSpeed_IsbL-0250_LatLon0.15_PT033H.grib2 2026-05-03 15:57 1.1M
20260503T12Z_MSC_GDPS_WindSpeed_IsbL-0275_LatLon0.15_PT033H.grib2 2026-05-03 15:57 1.1M
20260503T12Z_MSC_GDPS_WindSpeed_IsbL-0300_LatLon0.15_PT033H.grib2 2026-05-03 15:57 1.1M
20260503T12Z_MSC_GDPS_WindSpeed_IsbL-0350_LatLon0.15_PT033H.grib2 2026-05-03 15:57 1.1M
20260503T12Z_MSC_GDPS_WindSpeed_IsbL-0400_LatLon0.15_PT033H.grib2 2026-05-03 15:57 1.1M
20260503T12Z_MSC_GDPS_WindSpeed_IsbL-0450_LatLon0.15_PT033H.grib2 2026-05-03 15:57 1.1M
20260503T12Z_MSC_GDPS_WindSpeed_IsbL-0500_LatLon0.15_PT033H.grib2 2026-05-03 15:57 1.1M
20260503T12Z_MSC_GDPS_WindSpeed_IsbL-0550_LatLon0.15_PT033H.grib2 2026-05-03 15:57 1.1M
20260503T12Z_MSC_GDPS_WindSpeed_IsbL-0600_LatLon0.15_PT033H.grib2 2026-05-03 15:57 1.1M
20260503T12Z_MSC_GDPS_WindSpeed_IsbL-0650_LatLon0.15_PT033H.grib2 2026-05-03 15:57 1.2M
20260503T12Z_MSC_GDPS_WindSpeed_IsbL-0700_LatLon0.15_PT033H.grib2 2026-05-03 15:57 1.5M
20260503T12Z_MSC_GDPS_WindSpeed_IsbL-0750_LatLon0.15_PT033H.grib2 2026-05-03 15:57 1.6M
20260503T12Z_MSC_GDPS_WindSpeed_IsbL-0800_LatLon0.15_PT033H.grib2 2026-05-03 15:57 1.6M
20260503T12Z_MSC_GDPS_WindSpeed_IsbL-0850_LatLon0.15_PT033H.grib2 2026-05-03 15:57 1.7M
20260503T12Z_MSC_GDPS_WindSpeed_IsbL-0875_LatLon0.15_PT033H.grib2 2026-05-03 15:57 1.8M
20260503T12Z_MSC_GDPS_WindSpeed_IsbL-0900_LatLon0.15_PT033H.grib2 2026-05-03 15:57 1.8M
20260503T12Z_MSC_GDPS_WindSpeed_IsbL-0925_LatLon0.15_PT033H.grib2 2026-05-03 15:57 1.9M
20260503T12Z_MSC_GDPS_WindSpeed_IsbL-0950_LatLon0.15_PT033H.grib2 2026-05-03 15:57 1.9M
20260503T12Z_MSC_GDPS_WindSpeed_IsbL-0970_LatLon0.15_PT033H.grib2 2026-05-03 15:57 1.9M
20260503T12Z_MSC_GDPS_WindSpeed_IsbL-0985_LatLon0.15_PT033H.grib2 2026-05-03 15:57 1.9M
20260503T12Z_MSC_GDPS_WindSpeed_IsbL-1000_LatLon0.15_PT033H.grib2 2026-05-03 15:57 1.8M
20260503T12Z_MSC_GDPS_WindSpeed_IsbL-1015_LatLon0.15_PT033H.grib2 2026-05-03 15:57 1.8M
20260503T12Z_MSC_GDPS_WindU_AGL-10m_LatLon0.15_PT033H.grib2 2026-05-03 15:57 1.6M
20260503T12Z_MSC_GDPS_WindU_AGL-120m_LatLon0.15_PT033H.grib2 2026-05-03 15:57 1.0M
20260503T12Z_MSC_GDPS_WindU_AGL-40m_LatLon0.15_PT033H.grib2 2026-05-03 15:57 970K
20260503T12Z_MSC_GDPS_WindU_AGL-80m_LatLon0.15_PT033H.grib2 2026-05-03 15:57 1.0M
20260503T12Z_MSC_GDPS_WindU_IsbL-0001_LatLon0.15_PT033H.grib2 2026-05-03 15:57 508K
20260503T12Z_MSC_GDPS_WindU_IsbL-0005_LatLon0.15_PT033H.grib2 2026-05-03 15:57 699K
20260503T12Z_MSC_GDPS_WindU_IsbL-0010_LatLon0.15_PT033H.grib2 2026-05-03 15:57 710K
20260503T12Z_MSC_GDPS_WindU_IsbL-0020_LatLon0.15_PT033H.grib2 2026-05-03 15:57 739K
20260503T12Z_MSC_GDPS_WindU_IsbL-0030_LatLon0.15_PT033H.grib2 2026-05-03 15:57 749K
20260503T12Z_MSC_GDPS_WindU_IsbL-0050_LatLon0.15_PT033H.grib2 2026-05-03 15:57 709K
20260503T12Z_MSC_GDPS_WindU_IsbL-0100_LatLon0.15_PT033H.grib2 2026-05-03 15:57 932K
20260503T12Z_MSC_GDPS_WindU_IsbL-0150_LatLon0.15_PT033H.grib2 2026-05-03 15:57 1.0M
20260503T12Z_MSC_GDPS_WindU_IsbL-0175_LatLon0.15_PT033H.grib2 2026-05-03 15:57 1.0M
20260503T12Z_MSC_GDPS_WindU_IsbL-0200_LatLon0.15_PT033H.grib2 2026-05-03 15:57 843K
20260503T12Z_MSC_GDPS_WindU_IsbL-0225_LatLon0.15_PT033H.grib2 2026-05-03 15:57 855K
20260503T12Z_MSC_GDPS_WindU_IsbL-0250_LatLon0.15_PT033H.grib2 2026-05-03 15:57 856K
20260503T12Z_MSC_GDPS_WindU_IsbL-0275_LatLon0.15_PT033H.grib2 2026-05-03 15:57 883K
20260503T12Z_MSC_GDPS_WindU_IsbL-0300_LatLon0.15_PT033H.grib2 2026-05-03 15:57 877K
20260503T12Z_MSC_GDPS_WindU_IsbL-0350_LatLon0.15_PT033H.grib2 2026-05-03 15:57 891K
20260503T12Z_MSC_GDPS_WindU_IsbL-0400_LatLon0.15_PT033H.grib2 2026-05-03 15:57 1.1M
20260503T12Z_MSC_GDPS_WindU_IsbL-0450_LatLon0.15_PT033H.grib2 2026-05-03 15:57 1.1M
20260503T12Z_MSC_GDPS_WindU_IsbL-0500_LatLon0.15_PT033H.grib2 2026-05-03 15:57 1.1M
20260503T12Z_MSC_GDPS_WindU_IsbL-0550_LatLon0.15_PT033H.grib2 2026-05-03 15:57 1.1M
20260503T12Z_MSC_GDPS_WindU_IsbL-0600_LatLon0.15_PT033H.grib2 2026-05-03 15:57 1.2M
20260503T12Z_MSC_GDPS_WindU_IsbL-0650_LatLon0.15_PT033H.grib2 2026-05-03 15:57 1.2M
20260503T12Z_MSC_GDPS_WindU_IsbL-0700_LatLon0.15_PT033H.grib2 2026-05-03 15:57 1.2M
20260503T12Z_MSC_GDPS_WindU_IsbL-0750_LatLon0.15_PT033H.grib2 2026-05-03 15:57 1.2M
20260503T12Z_MSC_GDPS_WindU_IsbL-0800_LatLon0.15_PT033H.grib2 2026-05-03 15:57 1.3M
20260503T12Z_MSC_GDPS_WindU_IsbL-0850_LatLon0.15_PT033H.grib2 2026-05-03 15:57 1.4M
20260503T12Z_MSC_GDPS_WindU_IsbL-0875_LatLon0.15_PT033H.grib2 2026-05-03 15:57 1.5M
20260503T12Z_MSC_GDPS_WindU_IsbL-0900_LatLon0.15_PT033H.grib2 2026-05-03 15:57 1.5M
20260503T12Z_MSC_GDPS_WindU_IsbL-0925_LatLon0.15_PT033H.grib2 2026-05-03 15:57 1.5M
20260503T12Z_MSC_GDPS_WindU_IsbL-0950_LatLon0.15_PT033H.grib2 2026-05-03 15:57 1.4M
20260503T12Z_MSC_GDPS_WindU_IsbL-0970_LatLon0.15_PT033H.grib2 2026-05-03 15:57 1.4M
20260503T12Z_MSC_GDPS_WindU_IsbL-0985_LatLon0.15_PT033H.grib2 2026-05-03 15:57 1.4M
20260503T12Z_MSC_GDPS_WindU_IsbL-1000_LatLon0.15_PT033H.grib2 2026-05-03 15:57 1.4M
20260503T12Z_MSC_GDPS_WindU_IsbL-1015_LatLon0.15_PT033H.grib2 2026-05-03 15:57 1.6M
20260503T12Z_MSC_GDPS_WindV_AGL-10m_LatLon0.15_PT033H.grib2 2026-05-03 15:57 1.6M
20260503T12Z_MSC_GDPS_WindV_AGL-120m_LatLon0.15_PT033H.grib2 2026-05-03 15:57 1.0M
20260503T12Z_MSC_GDPS_WindV_AGL-40m_LatLon0.15_PT033H.grib2 2026-05-03 15:57 967K
20260503T12Z_MSC_GDPS_WindV_AGL-80m_LatLon0.15_PT033H.grib2 2026-05-03 15:57 1.0M
20260503T12Z_MSC_GDPS_WindV_IsbL-0001_LatLon0.15_PT033H.grib2 2026-05-03 15:57 721K
20260503T12Z_MSC_GDPS_WindV_IsbL-0005_LatLon0.15_PT033H.grib2 2026-05-03 15:57 865K
20260503T12Z_MSC_GDPS_WindV_IsbL-0010_LatLon0.15_PT033H.grib2 2026-05-03 15:57 894K
20260503T12Z_MSC_GDPS_WindV_IsbL-0020_LatLon0.15_PT033H.grib2 2026-05-03 15:57 862K
20260503T12Z_MSC_GDPS_WindV_IsbL-0030_LatLon0.15_PT033H.grib2 2026-05-03 15:57 947K
20260503T12Z_MSC_GDPS_WindV_IsbL-0050_LatLon0.15_PT033H.grib2 2026-05-03 15:57 912K
20260503T12Z_MSC_GDPS_WindV_IsbL-0100_LatLon0.15_PT033H.grib2 2026-05-03 15:57 860K
20260503T12Z_MSC_GDPS_WindV_IsbL-0150_LatLon0.15_PT033H.grib2 2026-05-03 15:57 1.0M
20260503T12Z_MSC_GDPS_WindV_IsbL-0175_LatLon0.15_PT033H.grib2 2026-05-03 15:57 1.0M
20260503T12Z_MSC_GDPS_WindV_IsbL-0200_LatLon0.15_PT033H.grib2 2026-05-03 15:57 842K
20260503T12Z_MSC_GDPS_WindV_IsbL-0225_LatLon0.15_PT033H.grib2 2026-05-03 15:57 909K
20260503T12Z_MSC_GDPS_WindV_IsbL-0250_LatLon0.15_PT033H.grib2 2026-05-03 15:57 909K
20260503T12Z_MSC_GDPS_WindV_IsbL-0275_LatLon0.15_PT033H.grib2 2026-05-03 15:57 934K
20260503T12Z_MSC_GDPS_WindV_IsbL-0300_LatLon0.15_PT033H.grib2 2026-05-03 15:57 929K
20260503T12Z_MSC_GDPS_WindV_IsbL-0350_LatLon0.15_PT033H.grib2 2026-05-03 15:57 884K
20260503T12Z_MSC_GDPS_WindV_IsbL-0400_LatLon0.15_PT033H.grib2 2026-05-03 15:57 886K
20260503T12Z_MSC_GDPS_WindV_IsbL-0450_LatLon0.15_PT033H.grib2 2026-05-03 15:57 1.1M
20260503T12Z_MSC_GDPS_WindV_IsbL-0500_LatLon0.15_PT033H.grib2 2026-05-03 15:57 1.1M
20260503T12Z_MSC_GDPS_WindV_IsbL-0550_LatLon0.15_PT033H.grib2 2026-05-03 15:57 1.1M
20260503T12Z_MSC_GDPS_WindV_IsbL-0600_LatLon0.15_PT033H.grib2 2026-05-03 15:57 1.1M
20260503T12Z_MSC_GDPS_WindV_IsbL-0650_LatLon0.15_PT033H.grib2 2026-05-03 15:57 1.2M
20260503T12Z_MSC_GDPS_WindV_IsbL-0700_LatLon0.15_PT033H.grib2 2026-05-03 15:57 1.2M
20260503T12Z_MSC_GDPS_WindV_IsbL-0750_LatLon0.15_PT033H.grib2 2026-05-03 15:57 1.3M
20260503T12Z_MSC_GDPS_WindV_IsbL-0800_LatLon0.15_PT033H.grib2 2026-05-03 15:57 1.3M
20260503T12Z_MSC_GDPS_WindV_IsbL-0850_LatLon0.15_PT033H.grib2 2026-05-03 15:57 1.4M
20260503T12Z_MSC_GDPS_WindV_IsbL-0875_LatLon0.15_PT033H.grib2 2026-05-03 15:57 1.4M
20260503T12Z_MSC_GDPS_WindV_IsbL-0900_LatLon0.15_PT033H.grib2 2026-05-03 15:57 1.5M
20260503T12Z_MSC_GDPS_WindV_IsbL-0925_LatLon0.15_PT033H.grib2 2026-05-03 15:57 1.5M
20260503T12Z_MSC_GDPS_WindV_IsbL-0950_LatLon0.15_PT033H.grib2 2026-05-03 15:57 1.4M
20260503T12Z_MSC_GDPS_WindV_IsbL-0970_LatLon0.15_PT033H.grib2 2026-05-03 15:57 1.4M
20260503T12Z_MSC_GDPS_WindV_IsbL-0985_LatLon0.15_PT033H.grib2 2026-05-03 15:57 1.4M
20260503T12Z_MSC_GDPS_WindV_IsbL-1000_LatLon0.15_PT033H.grib2 2026-05-03 15:57 1.7M
20260503T12Z_MSC_GDPS_WindV_IsbL-1015_LatLon0.15_PT033H.grib2 2026-05-03 15:57 1.6M